N1LD LFSB-KRDU

Flight info

Callsign N1LD
Flight time N/A
Altitude 34000
Route ELBEG DCT BEGAR DCT SUTAL N852 DIK M624 BUB L608 DENUT L610 KOPUL Q60 OKSAW DCT LANON DCT LIMRI/M080F340 DCT 5220N DCT 5230N DCT 5140N DCT 4950N DCT JOOPY/N0461F340 DCT ALLEX Q822 ENE Q480 BEEKN Q439 BLENO Q97 YAZUU Q167 ZJAAY TAQLE3
Aircraft B737/M-SDE2E3FGHIRWXY/LB1

Departure

Time 2026-04-29 02:03
Airport EuroAirport Basel–Mulhouse–Freiburg (LFSB)

Arrival

Time N/A
Airport Raleigh-Durham International Airport (KRDU)
Time Latitude Longitude Altitude Speed Heading
2026-04-29 01:54 47.58994 7.53927 889 ft 0 kts 306°
2026-04-29 01:59 47.58997 7.53921 889 ft 4 kts 306°
2026-04-29 01:59 47.59048 7.53931 889 ft 10 kts 60°
2026-04-29 02:00 47.59074 7.54025 889 ft 10 kts 62°
2026-04-29 02:00 47.59147 7.54076 889 ft 19 kts 337°
2026-04-29 02:00 47.59131 7.53838 890 ft 27 kts 258°
2026-04-29 02:00 47.59086 7.53541 889 ft 33 kts 256°
2026-04-29 02:01 47.59033 7.53342 890 ft 15 kts 208°
2026-04-29 02:01 47.58909 7.53372 889 ft 22 kts 167°
2026-04-29 02:01 47.58740 7.53428 889 ft 29 kts 169°
2026-04-29 02:01 47.58654 7.53344 889 ft 19 kts 240°
2026-04-29 02:02 47.58616 7.53188 887 ft 8 kts 294°
2026-04-29 02:02 47.58683 7.53132 886 ft 19 kts 335°
2026-04-29 02:02 47.59002 7.52909 888 ft 85 kts 334°
2026-04-29 02:02 47.59724 7.52408 886 ft 144 kts 335°
2026-04-29 02:03 47.60755 7.51676 1111 ft 176 kts 334°
2026-04-29 02:03 47.61872 7.50817 1837 ft 178 kts 332°
2026-04-29 02:03 47.62977 7.50026 2675 ft 178 kts 351°
2026-04-29 02:03 47.64236 7.50171 3055 ft 198 kts 14°
2026-04-29 02:04 47.65672 7.50645 3306 ft 225 kts 14°
2026-04-29 02:04 47.67269 7.51168 3733 ft 242 kts 14°
2026-04-29 02:04 47.69002 7.51725 4080 ft 263 kts 14°
2026-04-29 02:04 47.70818 7.52293 4894 ft 268 kts 14°
2026-04-29 02:05 47.72649 7.52854 5849 ft 270 kts 14°
2026-04-29 02:05 47.74488 7.53412 6667 ft 275 kts 14°
2026-04-29 02:05 47.76372 7.53979 7535 ft 276 kts 14°
2026-04-29 02:05 47.78259 7.54545 8460 ft 276 kts 14°
2026-04-29 02:06 47.80152 7.55112 9334 ft 278 kts 14°
2026-04-29 02:06 47.82036 7.55676 10172 ft 280 kts 14°
2026-04-29 02:06 47.83988 7.56261 10625 ft 297 kts 13°
2026-04-29 02:06 47.86106 7.56898 10815 ft 322 kts 13°
2026-04-29 02:07 47.88396 7.57566 11039 ft 344 kts
2026-04-29 02:07 47.90811 7.57598 11561 ft 357 kts 353°
2026-04-29 02:07 47.93233 7.56636 12300 ft 363 kts 338°
2026-04-29 02:07 47.95525 7.55041 13115 ft 365 kts 334°
2026-04-29 02:08 47.97815 7.53324 13919 ft 368 kts 333°
2026-04-29 02:08 48.00072 7.51599 14681 ft 369 kts 332°
2026-04-29 02:08 48.02366 7.49847 15363 ft 373 kts 332°
2026-04-29 02:08 48.04708 7.48069 15950 ft 379 kts 332°
2026-04-29 02:09 48.07078 7.46281 16625 ft 383 kts 332°
2026-04-29 02:09 48.09472 7.44485 17300 ft 386 kts 332°
2026-04-29 02:09 48.11893 7.42674 17954 ft 390 kts 332°
2026-04-29 02:09 48.14301 7.40876 18541 ft 394 kts 332°
2026-04-29 02:10 48.16765 7.39036 19118 ft 397 kts 332°
2026-04-29 02:10 48.19239 7.37188 19749 ft 398 kts 332°
2026-04-29 02:10 48.21732 7.35325 20372 ft 400 kts 332°
2026-04-29 02:10 48.24232 7.33455 20968 ft 402 kts 331°
2026-04-29 02:11 48.26752 7.31567 21553 ft 404 kts 331°
2026-04-29 02:11 48.29252 7.29692 22095 ft 408 kts 331°
2026-04-29 02:11 48.31812 7.27769 22577 ft 412 kts 330°
2026-04-29 02:11 48.34390 7.25831 23145 ft 415 kts 330°
2026-04-29 02:12 48.36979 7.23882 23718 ft 416 kts 330°
2026-04-29 02:12 48.39578 7.21925 24169 ft 418 kts 330°
2026-04-29 02:12 48.42196 7.19951 24613 ft 421 kts 330°
2026-04-29 02:12 48.44785 7.17995 25101 ft 422 kts 330°
2026-04-29 02:13 48.47422 7.16002 25559 ft 423 kts 330°
2026-04-29 02:13 48.50044 7.14018 25990 ft 425 kts 330°
2026-04-29 02:13 48.52696 7.12008 26404 ft 427 kts 330°
2026-04-29 02:13 48.55362 7.09986 26792 ft 429 kts 330°
2026-04-29 02:14 48.58038 7.07953 27197 ft 432 kts 330°
2026-04-29 02:14 48.59824 7.06594 27463 ft 433 kts 329°
2026-04-29 02:14 48.62519 7.04543 27826 ft 435 kts 329°
2026-04-29 02:14 48.65235 7.02473 28201 ft 437 kts 329°
2026-04-29 02:15 48.67959 7.00395 28571 ft 438 kts 329°
2026-04-29 02:15 48.70665 6.98329 28974 ft 439 kts 329°
2026-04-29 02:15 48.73396 6.96241 29420 ft 438 kts 329°
2026-04-29 02:15 48.76133 6.94146 29862 ft 438 kts 329°
2026-04-29 02:16 48.78816 6.92091 30326 ft 436 kts 328°
2026-04-29 02:16 48.81520 6.90017 30744 ft 433 kts 328°
2026-04-29 02:16 48.84207 6.87953 31086 ft 433 kts 328°
2026-04-29 02:16 48.86899 6.85881 31390 ft 433 kts 328°
2026-04-29 02:17 48.89558 6.83831 31750 ft 432 kts 328°
2026-04-29 02:17 48.92238 6.81765 32157 ft 430 kts 328°
2026-04-29 02:17 48.94910 6.79703 32518 ft 428 kts 328°
2026-04-29 02:17 48.97566 6.77649 32809 ft 428 kts 328°
2026-04-29 02:18 49.00225 6.75589 33092 ft 428 kts 328°
2026-04-29 02:18 49.02884 6.73528 33410 ft 427 kts 328°
2026-04-29 02:18 49.05533 6.71473 33728 ft 426 kts 328°
2026-04-29 02:18 49.08171 6.69423 34009 ft 426 kts 328°
2026-04-29 02:19 49.10785 6.67389 34156 ft 428 kts 328°
2026-04-29 02:19 49.13457 6.65305 34158 ft 432 kts 328°
2026-04-29 02:19 49.18878 6.61071 34168 ft 440 kts 328°
2026-04-29 02:20 49.24348 6.56793 34164 ft 446 kts 328°
2026-04-29 02:20 49.29890 6.52451 34155 ft 447 kts 328°
2026-04-29 02:21 49.35445 6.48085 34175 ft 447 kts 328°
2026-04-29 02:21 49.40960 6.43739 34171 ft 447 kts 328°
2026-04-29 02:22 49.46487 6.39379 34180 ft 446 kts 329°
2026-04-29 02:22 49.52189 6.35530 34183 ft 448 kts 333°
2026-04-29 02:23 49.57932 6.31935 34200 ft 446 kts 333°
2026-04-29 02:23 49.63664 6.28235 34180 ft 446 kts 333°
2026-04-29 02:24 49.69361 6.24407 34189 ft 446 kts 332°
2026-04-29 02:25 49.77859 6.18611 34186 ft 446 kts 332°
2026-04-29 02:25 49.83558 6.14720 34198 ft 446 kts 331°
2026-04-29 02:26 49.88636 6.09471 34187 ft 439 kts 314°
2026-04-29 02:26 49.93003 6.02835 34210 ft 439 kts 313°
2026-04-29 02:27 49.97401 5.96253 34210 ft 439 kts 314°
2026-04-29 02:27 50.01823 5.89658 34207 ft 440 kts 314°
2026-04-29 02:28 50.06224 5.83069 34210 ft 442 kts 314°
2026-04-29 02:28 50.10676 5.76383 34225 ft 445 kts 314°
2026-04-29 02:29 50.15111 5.69703 34219 ft 447 kts 314°
2026-04-29 02:29 50.19601 5.62922 34217 ft 448 kts 314°
2026-04-29 02:30 50.24068 5.56157 34219 ft 449 kts 314°
2026-04-29 02:30 50.28560 5.49333 34202 ft 450 kts 314°
2026-04-29 02:31 50.33073 5.42457 34222 ft 453 kts 315°
2026-04-29 02:31 50.37589 5.35560 34209 ft 456 kts 315°
2026-04-29 02:32 50.42141 5.28589 34217 ft 458 kts 315°
2026-04-29 02:32 50.46686 5.21609 34231 ft 459 kts 315°
2026-04-29 02:33 50.51250 5.14576 34220 ft 459 kts 315°
2026-04-29 02:33 50.55790 5.07565 34202 ft 462 kts 317°
2026-04-29 02:34 50.60407 5.00412 34236 ft 469 kts 316°
2026-04-29 02:34 50.65080 4.93155 34231 ft 471 kts 316°
2026-04-29 02:35 50.69725 4.85926 34241 ft 471 kts 316°
2026-04-29 02:35 50.74396 4.78665 34230 ft 471 kts 316°
2026-04-29 02:36 50.79016 4.71421 34231 ft 470 kts 317°
2026-04-29 02:36 50.83676 4.64089 34231 ft 471 kts 317°
2026-04-29 02:37 50.87635 4.57858 34245 ft 473 kts 317°